www.pogodaiklimat.ru
ПОГОДА в Ролла / Виши
Время
и дата
04:53 28.09
05:53 28.09
06:53 28.09
07:53 28.09
08:53 28.09
09:53 28.09
10:53 28.09
11:53 28.09
12:53 28.09
13:53 28.09
14:53 28.09
15:53 28.09
16:53 28.09
17:53 28.09
18:53 28.09
19:53 28.09
20:53 28.09
21:53 28.09
22:53 28.09
23:53 28.09
00:53 29.09
01:53 29.09
02:53 29.09
03:53 29.09
04:53 29.09
05:53 29.09
06:53 29.09
07:53 29.09
08:53 29.09
09:53 29.09
10:53 29.09
11:53 29.09
12:53 29.09
13:53 29.09
14:53 29.09
15:53 29.09
16:53 29.09
17:53 29.09
18:53 29.09
19:53 29.09
20:53 29.09
21:53 29.09
22:53 29.09
23:53 29.09
00:53 30.09
01:53 30.09
02:53 30.09
03:53 30.09
Ветер
(напр.,м/с)
Видим. Явления Облачность Т
(С)
Тd
(С)
f
(%)
Тe
(С)
Тes
(С)
Комфортность P
(гПа)
Po
(гПа)
Тmin
(С)
Tmax
(С)
R
(мм)
R24
(мм)
S
(см)
В 2 16 км ясно +8.3 +3.9 74 +7 +7 1027.6 986.0
В 2 16 км ясно +7.2 +3.3 76 +5 +5 1028.6 986.7 +6.7 +12.2
СВ 4 16 км ясно +9.4 +4.4 71 +7 +7 1029.3 987.3
В 4 16 км ясно +12.8 +4.4 57 +11 +12 1029.9 988.0
СВ 5 16 км ясно +14.4 +3.9 49 +13 +14 1030.3 988.6
СВ 5 16 км ясно +16.1 +2.2 39 +15 +18 1030.6 988.6
СВ 5 16 км ясно +17.8 -0.6 29 +17 +22 1030.5 988.6
СВ 4
{8}
16 км ясно +18.3 0.0 29 +18 +26 1030.1 988.3 +7.2 +18.9
СВ 4 16 км ясно +19.4 +0.6 28 +20 +28 1029.5 987.6
СВ 4 16 км ясно +19.4 +0.6 28 +20 +28 1028.9 987.3
С 5 16 км ясно +20.6 +2.2 30 +21 +26 комфорт 1028.5 986.7
СВ 5
{8}
16 км ясно +19.4 +1.7 31 +19 +23 1028.5 986.7
В 4 16 км ясно +17.8 +2.2 35 +18 +20 1028.7 986.7
СВ 3 16 км ясно +15.0 +2.2 42 +14 +15 1029.0 987.0 +15.0 +20.6
СВ 3 16 км ясно +12.2 +3.3 54 +11 +11 1029.2 987.0
В 3 16 км ясно +12.2 +3.9 57 +11 +11 1029.6 987.6
В 3 16 км ясно +11.7 +3.9 59 +10 +10 1030.1 988.0
В 2 16 км ясно +10.0 +3.9 66 +9 +9 1030.2 988.3
В 2 16 км ясно +8.9 +3.9 71 +7 +7 1030.4 988.3
В 2 16 км ясно +8.3 +3.9 74 +7 +7 1030.2 988.3 +8.3 +14.4
В 2 16 км ясно +7.8 +3.3 73 +6 +6 1030.0 988.0
В 2 16 км ясно +7.8 +3.9 76 +6 +6 1029.9 988.0
ЮВ 3 16 км ясно +7.2 +3.9 80 +4 +4 1029.7 988.0
В 4 16 км ясно +7.2 +3.9 80 +4 +4 1029.5 987.6
В 3 16 км ясно +6.7 +4.4 85 +4 +4 1030.1 988.0
В 4 16 км ясно +6.1 +3.9 86 +2 +2 1030.5 988.3 +6.1 +8.3
В 3 16 км ясно +8.3 +5.6 83 +6 +6 1030.7 988.3
В 4 16 км ясно +10.6 +6.1 74 +8 +9 1030.8 988.6
ЮВ 5 16 км ясно +13.3 +6.1 62 +11 +13 1031.1 988.9
В 6 16 км ясно +15.6 +5.6 51 +14 +16 1031.0 988.9
В 5 16 км ясно +17.8 +5.0 43 +17 +22 1030.3 988.3
В 5
{8}
16 км ясно +18.9 +5.0 40 +19 +25 1029.1 987.3 +6.1 +18.9
В 4 16 км ясно +19.4 +5.0 39 +20 +28 1028.2 986.3
В 5 16 км ясно +20.6 +4.4 34 +21 +27 комфорт 1026.9 985.0
В 4 16 км ясно +20.6 +4.4 34 +21 +28 комфорт 1026.1 984.4
В 4 16 км ясно +20.0 +3.9 35 +21 +25 комфорт 1025.6 983.7
В 4 16 км ясно +19.4 +5.6 40 +20 +22 1025.3 983.4
В 3 16 км ясно +15.6 +5.0 49 +15 +16 1025.0 983.1 +15.6 +21.1
В 2 16 км ясно +11.7 +5.0 63 +11 +11 1024.9 982.8
В 2 16 км слабый дождь ясно +11.1 +5.0 66 +10 +10 1024.8 982.8
В 2 16 км ясно +11.1 +4.4 63 +10 +10 1024.9 983.1
В 2 16 км ясно +10.6 +4.4 65 +9 +9 1024.7 983.1
В 2 16 км ясно +9.4 +4.4 71 +8 +8 1024.5 982.8
В 2 16 км ясно +8.3 +4.4 76 +7 +7 1024.3 982.8 +8.3 +15.6
штиль 0 16 км ясно +6.1 +2.8 79 +5 +5 1024.3 982.4
штиль 0 16 км ясно +5.6 +2.8 82 +5 +5 1024.0 982.1
В 3 16 км ясно +6.7 +3.9 82 +4 +4 1023.4 981.8
штиль 0 16 км ясно +5.6 +3.3 85 +5 +5 1023.5 981.8
Местоположение метеостанции Rolla National Airport: широта 38.1319 долгота -91.7653 высота над уровнем моря 350 м.
В архиве по умолчанию представлена погода в Ролла / Виши за последние 1-2 суток. Обновление информации о фактической погоде в базе происходит ежечасно! Архивные данные за месяц целиком и за предыдущие месяцы Вы можете получить, выбрав интересующий диапазон дат из раскрывающегося списка и нажав кнопку "Ввод!".
Внимание! Архив погоды МЕТАР в базе сайта по станциям, не включенным в климатический монитор, хранится не более 60 дней. Нет смысла пытаться выбрать более раннюю дату.
*Определитесь, кто Вы:
Внимание! Время в таблицах - местное (без учета летнего времени). Для получения всемирного времени необходимо вычесть поправку, которая равна -6 ч.
Смотрите также архив погоды в соседних городах и на ближайших метеорологических станциях:
Партнеры нашего сайта:      
Пояснения к столбцам:
  • Ветер - указаны скорость ветра в м/с - средняя за 10 мин, порывы в срок и между сроками (в фигурных скобках) и направление, откуда дует ветер: С - северный,
  • СВ - северо-восточный, В - восточный, ЮВ - юго-восточный, Ю - южный, ЮЗ - юго-западный, З - западный, СЗ - северо-западный.
  • Видимость - горизонтальная дальность видимости в метрах или километрах. При видимости от 1 до 10 км при отсутствии осадков обычно наблюдается дымка, при ухудшении видимости до 1 км и менее - туман. В сухую погоду видимость может ухудшаться дымом, пылью или мглою.
  • Явления - указаны атмосферные явления, наблюдавшиеся в срок или в последний час перед сроком; фигурными скобками обозначены явления, наблюдавшиеся между сроками (за 1-3 часа до срока); квадратными скобками обозначены град или гололедные отложения с указанием их диаметра в мм.
  • Облачность - указаны через наклонную черту общая и нижняя облачность в баллах и высота нижней границы облаков в метрах; квадратными скобками обозначены формы облаков: Ci - перистые, Cs - перисто-слоистые, Cc - перисто-кучевые, Ac - высококучевые, As - высокослоистые, Sc - слоисто-кучевые, Ns - слоисто-дождевые, Cu - кучевые, Cb - кучево-дождевые. Подробнее классификацию облаков см. в Атласе облаков (PDF).
  • T - Температура воздуха - температура, измеренная на высоте 2 м над землей.
  • Td - Температура точки росы - температура, при понижении до которой содержащийся в воздухе водяной пар достигнет насыщения.
  • f - Относительная влажность воздуха - влажноcть воздуха, измеренная на высоте 2 м над землей.
  • Te - Эффективная температура - температура, которую ощущает одетый по сезону человек в тени. Характеристика душности погоды. При расчете учитывается влияние влажности воздуха и скорости ветра на теплоощущения человека.
  • Tes - Эффективная температура на солнце - температура, которую ощущает человек, с поправкой на солнечный нагрев. Характеристика знойности погоды. Зависит от высоты солнца над горизонтом, облачности и скорости ветра. Ночью, в пасмурную погоду, а также при ветре 12 м/с и более поправка равна нулю.
  • P - Атмосферное давление - приведенное к уровню моря атмосферное давление.
  • Po - Атмосферное давление - измеренное на уровне метеостанции атмосферное давление.
  • Tmin - Минимальная температура - минимум температуры воздуха на высоте 2 м над землей.
  • Tmax - Максимальная температура - максимум температуры воздуха на высоте 2 м над землей.
  • R - Количество осадков - Количество выпавших осадков за период времени, мм. При наведении курсора мыши на число - период времени, за который выпало указанное количество осадков.
  • R24 - Количество осадков - Количество выпавших осадков за 24 часа, мм.
  • S - Снежный покров - Высота снежного покрова, см. При наведении курсора мыши на число - состояние снежного покрова и степень покрытия местности в баллах.